Location: Luxembourg
(49.6117°N, 6.1300°E)
Time: 05:51:13
(UTC+02:00)

Nauka - Visible Passes

Search period start: 18 September 2021 00:00
Search period end: 28 September 2021 00:00
Orbit: 419 x 423 km, 51.6° (Epoch: 17 September)

Date Brightness Start Highest point End Pass type
(mag) Time Alt. Az. Time Alt. Az. Time Alt. Az.
18 Sep ? 20:52:05 10° SSW 20:55:07 32° SSE 20:56:29 23° ESE visible
18 Sep ? 22:28:25 10° W 22:29:30 19° W 22:29:30 19° W visible
19 Sep ? 21:41:31 10° WSW 21:44:44 80° SW 21:44:44 80° SW visible
20 Sep ? 20:54:40 10° WSW 20:58:01 66° SSE 20:59:50 25° E visible
20 Sep ? 22:31:36 10° W 22:32:50 20° W 22:32:50 20° W visible
21 Sep ? 20:07:54 10° SW 20:11:10 47° SSE 20:14:26 10° ENE visible
21 Sep ? 21:44:37 10° W 21:47:51 64° NNW 21:47:51 64° NNW visible
22 Sep ? 20:57:40 10° W 21:01:02 75° NNW 21:02:47 26° ENE visible
22 Sep ? 22:34:44 10° WNW 22:35:46 18° WNW 22:35:46 18° WNW visible
23 Sep ? 20:10:45 10° WSW 20:14:08 88° SSE 20:17:31 10° ENE visible
23 Sep ? 21:47:47 10° W 21:50:39 51° NW 21:50:39 51° NW visible
24 Sep ? 21:00:48 10° W 21:04:09 59° N 21:05:29 32° ENE visible
24 Sep ? 22:37:48 10° WNW 22:38:29 15° WNW 22:38:29 15° WNW visible
25 Sep ? 20:13:49 10° W 20:17:11 64° N 20:20:19 12° ENE visible
25 Sep ? 21:50:51 10° WNW 21:53:18 43° WNW 21:53:18 43° WNW visible
26 Sep ? 21:03:54 10° WNW 21:07:16 62° N 21:08:06 44° ENE visible
26 Sep ? 22:40:49 10° WNW 22:41:06 12° WNW 22:41:06 12° WNW visible
27 Sep ? 20:16:56 10° W 20:20:17 59° N 20:22:55 15° E visible
27 Sep ? 21:53:52 10° WNW 21:55:54 34° W 21:55:54 34° W visible
